Weather History for East Milton, MA

Change the Weather History Date:

Tuesday, November 26, 2013

  Actual Average (KBOS) Record (KBOS)
Temperature  
Mean Temperature 34 °F 42 °F  
Max Temperature 41 °F 48 °F 67 °F (1946)
Min Temperature 30 °F 35 °F 12 °F (1932)
Degree Days  
Heating Degree Days 30 24  
Month to date heating degree days 512  
Since 1 July heating degree days 959  
Cooling Degree Days 0 0  
Month to date cooling degree days 0  
Year to date cooling degree days 747  
Moisture  
Dew Point 23 °F    
Average Humidity 64    
Maximum Humidity 100    
Minimum Humidity 43    
Precipitation  
Precipitation 0.11 in 0.13 in 1.79 in (1900)
Month to date precipitation 3.44  
Year to date precipitation 39.44  
Snow  
Snow 0.00 in 0.10 in 1.20 in (1985)
Month to date snowfall 0.9  
Since 1 July snowfall 0.9  
Since 1 September snowfall 0.9  
Snow Depth -    
Sea Level Pressure  
Sea Level Pressure 30.27 in    
Wind  
Wind Speed 13 mph (South)    
Max Wind Speed 18 mph    
Max Gust Speed 25 mph    
T = Trace of Precipitation, MM = Missing Value Source: NWS Daily Summary

Daily Weather History Graph

Daily Weather History Graph

Search for Another Location

Airport:

Trip Planner

Search our weather history database for the weather conditions in past years. The results will help you decide how hot, cold, wet, or windy it might be!

Date:

Astronomy

Nov. 26, 2013 Rise Set
Actual Time 6:48 AM EST 4:15 PM EST
Civil Twilight 6:17 AM EST 4:46 PM EST
Nautical Twilight 5:42 AM EST 5:20 PM EST
Astronomical Twilight 5:09 AM EST 5:54 PM EST
Moon No Moon Rise 12:27 PM EST (11/26)
Length of Visible Light 10h 28m
Length of Day
9h 26m
Last Quarter, 41% of the Moon is Illuminated
Nov 26
Last Quarter
Dec 2
New
Dec 9
First Quarter
Dec 17
Full
Dec 25
Last Quarter

Hourly Weather History & Observations

Time (EST) Temp. Windchill Dew Point Humidity Pressure Visibility Wind Dir Wind Speed Gust Speed Precip Events Conditions
12:54 AM 30.0 °F 18.3 °F 18.0 °F 61% 30.29 in - SSW 17.3 mph 24.2 mph N/A   Unknown
1:54 AM 30.9 °F 19.4 °F 18.0 °F 59% 30.29 in - SSW 17.3 mph 23.0 mph N/A   Unknown
2:54 AM 32.0 °F 21.6 °F 16.0 °F 52% 30.29 in - SW 15.0 mph 23.0 mph N/A   Unknown
3:54 AM 30.9 °F 19.4 °F 15.1 °F 52% 30.29 in - SSW 17.3 mph 25.3 mph N/A   Unknown
4:54 AM 30.9 °F 20.2 °F 15.1 °F 52% 30.30 in - SW 15.0 mph - N/A   Unknown
5:54 AM 32.0 °F 22.5 °F 15.1 °F 50% 30.32 in - SW 12.7 mph - N/A   Unknown
6:54 AM 32.0 °F 21.6 °F 18.0 °F 56% 30.32 in - SSW 15.0 mph - N/A   Unknown
7:54 AM 33.1 °F 23.4 °F 19.0 °F 56% 30.33 in - SSW 13.8 mph - N/A   Unknown
8:54 AM 34.0 °F 25.5 °F 19.9 °F 56% 30.34 in - SW 11.5 mph - N/A   Unknown
9:54 AM 35.1 °F 27.9 °F 21.0 °F 57% 30.35 in - WSW 9.2 mph - N/A   Unknown
10:54 AM 37.0 °F 32.4 °F 19.9 °F 50% 30.33 in - SW 5.8 mph - N/A   Unknown
11:54 AM 37.9 °F 30.9 °F 21.0 °F 51% 30.31 in - SW 10.4 mph - N/A   Unknown
12:54 PM 39.0 °F 33.4 °F 19.9 °F 46% 30.30 in - SW 8.1 mph 18.4 mph N/A   Unknown
1:54 PM 39.0 °F 32.8 °F 18.0 °F 43% 30.29 in - SSW 9.2 mph - N/A   Unknown
2:54 PM 39.0 °F 33.4 °F 18.0 °F 43% 30.29 in - SSW 8.1 mph - N/A   Unknown
3:54 PM 39.0 °F 35.7 °F 18.0 °F 43% 30.30 in - South 4.6 mph - N/A   Unknown
4:54 PM 37.9 °F 33.5 °F 19.9 °F 48% 30.30 in - SE 5.8 mph - N/A   Unknown
5:54 PM 36.0 °F 29.6 °F 27.0 °F 70% 30.28 in - SSE 8.1 mph - N/A   Unknown
6:54 PM 35.1 °F 27.9 °F 32.0 °F 89% 30.27 in - SE 9.2 mph - N/A   Unknown
7:54 PM 35.1 °F 27.4 °F 34.0 °F 96% 30.25 in - SE 10.4 mph - 0.01 in   Unknown
8:54 PM 36.0 °F 27.5 °F 35.1 °F 97% 30.22 in - ESE 12.7 mph - 0.01 in   Unknown
9:54 PM 37.0 °F 28.1 °F 37.0 °F 100% 30.16 in - ESE 15.0 mph - 0.01 in   Unknown
10:54 PM 39.0 °F 29.6 °F 39.0 °F 100% 30.12 in - ESE 18.4 mph - 0.03 in   Unknown
11:54 PM 41.0 °F 32.8 °F 41.0 °F 100% 30.05 in - ESE 16.1 mph - 0.05 in   Unknown